Simultaneous Nadir Overpasses (SNOs) Predictions

Prediction of SNOs between FY3D and NOAA-19 Satellite Orbit:

Table of predicted SNOs for the next 14.0 days since TLE Epoch: 11/2/2024
Index Date (FY3D) Time (FY3D) Lat,Lon (FY3D) SZA (FY3D ) Date (NOAA-19) Time (NOAA-19) Lat,Lon (NOAA-19) SZA (NOAA-19 ) Distance(km) Time Diff (sec)
1 11/07/2024 02:26:17 -75.71, -33.49 87.88 11/07/2024 02:25:07 -75.72, -35.39 87.93 52.11 70
2 11/07/2024 03:17:09 76.01, 132.80 92.40 11/07/2024 03:16:01 76.01, 132.89 92.40 2.52 68
3 11/07/2024 04:07:54 -76.02, -59.94 87.58 11/07/2024 04:06:58 -76.00, -59.89 87.61 2.94 56
4 11/07/2024 04:58:39 76.00, 107.45 92.42 11/07/2024 04:57:58 76.02, 107.45 92.44 2.39 41
5 11/07/2024 05:49:24 -76.01, -85.29 87.56 11/07/2024 05:48:55 -76.01, -85.34 87.57 1.60 29
6 11/07/2024 06:40:10 76.04, 81.93 92.48 11/07/2024 06:39:55 76.03, 82.00 92.47 1.92 15
7 11/07/2024 07:30:55 -76.05,-110.80 87.51 11/07/2024 07:30:52 -76.02,-110.79 87.54 3.86 3
8 11/07/2024 08:21:40 76.03, 56.58 92.49 11/07/2024 08:21:52 76.05, 56.56 92.50 1.53 12
9 11/07/2024 09:12:25 -76.05,-136.15 87.49 11/07/2024 09:12:49 -76.03,-136.23 87.51 2.93 24
10 11/07/2024 10:03:11 76.07, 31.07 92.55 11/07/2024 10:03:49 76.06, 31.11 92.54 2.02 38
11 11/07/2024 10:53:56 -76.09,-161.66 87.44 11/07/2024 10:54:45 -76.09,-161.52 87.43 3.86 49
12 11/07/2024 11:44:41 76.07, 5.72 92.56 11/07/2024 11:45:46 76.07, 5.67 92.57 1.38 65
13 11/07/2024 12:35:28 -76.17, 172.66 87.34 11/07/2024 12:36:41 -76.14, 173.20 87.35 14.62 73



Historial Predications of SNOs between FY3D and NOAA-19
